M I D A S
Marine Information and Data Acquisition System
Tripno 455 of the Zeeleeuw from 2003-03-25 09:09:30 to 2003-03-25 17:48:48
Back to CruiseResearch ActivitiesStationsMapUnderway DataData graphs

EquipmentUnitsComments
TimeDGPSUTC
LatitudeDGPSDM.mWGS84
LongitudeDGPSDM.mWGS84
SpeedMeteo Stationm/sRelative wind speed
DirectionMeteo StationdegRelative wind direction
TemperatureMeteo Stationdeg CelciusAir temperature
PressureMeteo StationPaAtmospheric pressure
HumidityMeteo Station%Relative humidity
Missing or incorrect values are displayed as -999
Metereological data collected by the RV Zeeleeuw from 2003-03-25 09:09:30 to 2003-03-25 17:48:48
Time Latitude Longitude Speed Direction Temperature Pressure Humidity
2003-03-25 09:10 51°13.6 2°56.102 0.8 184 10.4 102370 79
2003-03-25 09:11 51°13.611 2°56.07 2.4 150 10.5 102370 79
2003-03-25 09:12 51°13.634 2°55.985 3.2 160 10.3 102370 78
2003-03-25 09:13 51°13.66 2°55.879 4 153 10.1 102370 78
2003-03-25 09:14 51°13.674 2°55.783 3.3 134 9.9 102370 79
2003-03-25 09:15 51°13.673 2°55.746 2.2 72 9.8 102370 80
2003-03-25 09:16 51°13.702 2°55.768 3.4 12 9.9 102370 81
2003-03-25 09:17 51°13.755 2°55.706 4.5 347 9.9 102370 80
2003-03-25 09:18 51°13.853 2°55.623 5.8 2 9.8 102360 80
2003-03-25 09:19 51°13.97 2°55.531 5.8 8 9.7 102360 80
2003-03-25 09:20 51°14.094 2°55.435 6.4 10 9.6 102360 81
2003-03-25 09:21 51°14.22 2°55.335 6.3 10 9.4 102360 81
2003-03-25 09:22 51°14.326 2°55.148 6.2 3 9.2 102370 82
2003-03-25 09:23 51°14.452 2°54.986 5.9 13 9 102370 83
2003-03-25 09:24 51°14.59 2°54.85 6.2 16 8.9 102370 84
2003-03-25 09:25 51°14.749 2°54.704 7.4 11 8.8 102370 84
2003-03-25 09:26 51°14.927 2°54.542 8 12 8.8 102370 85
2003-03-25 09:27 51°15.106 2°54.382 7.7 14 8.7 102360 85
2003-03-25 09:28 51°15.287 2°54.223 7.8 11 8.7 102360 86
2003-03-25 09:29 51°15.47 2°54.057 8.9 9 8.6 102360 86
2003-03-25 09:30 51°15.671 2°53.882 8.9 8 8.6 102360 86
2003-03-25 09:31 51°15.875 2°53.7 9 5 8.5 102360 86
2003-03-25 09:32 51°16.08 2°53.516 9.3 6 8.4 102360 86
2003-03-25 09:33 51°16.284 2°53.33 9.2 8 8.3 102360 87
2003-03-25 09:34 51°16.486 2°53.145 9 7 8.3 102360 87
2003-03-25 09:35 51°16.687 2°52.96 9.2 7 8.2 102360 87
2003-03-25 09:36 51°16.89 2°52.773 8.5 8 8.2 102360 88
2003-03-25 09:37 51°17.093 2°52.589 9.3 9 8.1 102350 88
2003-03-25 09:38 51°17.3 2°52.416 8.9 11 8.1 102360 88
2003-03-25 09:39 51°17.525 2°52.315 8.3 12 8.1 102360 88
2003-03-25 09:40 51°17.749 2°52.294 7.7 13 8 102360 88
2003-03-25 09:41 51°17.972 2°52.308 6.9 17 8 102360 88
2003-03-25 09:42 51°18.161 2°52.498 5.6 9 8 102370 89
2003-03-25 09:43 51°18.278 2°52.796 5.3 8 8 102370 89
2003-03-25 09:44 51°18.378 2°53.102 5.5 8 8 102370 89
2003-03-25 09:45 51°18.492 2°53.411 5.6 8 8 102370 89
2003-03-25 09:46 51°18.6 2°53.717 5 2 7.9 102370 89
2003-03-25 09:47 51°18.71 2°54.024 5 4 7.9 102370 89
2003-03-25 09:48 51°18.832 2°54.316 5.7 6 7.9 102370 89
2003-03-25 09:49 51°18.963 2°54.592 5.7 7 7.9 102370 89
2003-03-25 09:50 51°19.107 2°54.875 6.1 8 7.9 102370 89
2003-03-25 09:51 51°19.294 2°55.066 6.7 9 7.9 102360 89
2003-03-25 09:52 51°19.489 2°55.243 6.8 11 8 102370 89
2003-03-25 09:53 51°19.701 2°55.36 7.5 9 8 102360 89
2003-03-25 09:54 51°19.927 2°55.329 7.8 10 8 102360 89
2003-03-25 09:55 51°20.158 2°55.302 8 10 8 102360 89
2003-03-25 09:56 51°20.387 2°55.275 7.4 10 8 102360 89
2003-03-25 09:57 51°20.618 2°55.25 8 11 8 102360 89
2003-03-25 09:58 51°20.845 2°55.225 8 9 8 102360 89
2003-03-25 09:59 51°21.078 2°55.203 8.2 7 8 102350 89
2003-03-25 10:00 51°21.313 2°55.181 8.1 5 7.9 102360 89
2003-03-25 10:01 51°21.546 2°55.156 8.3 4 7.9 102350 89
2003-03-25 10:02 51°21.779 2°55.135 8.2 4 7.9 102360 89
2003-03-25 10:03 51°22.014 2°55.116 8.1 4 7.8 102350 89
2003-03-25 10:04 51°22.25 2°55.152 7.9 6 7.8 102360 89
2003-03-25 10:05 51°22.472 2°55.238 8 6 7.7 102360 89
2003-03-25 10:06 51°22.7 2°55.321 8.1 7 7.7 102360 89
2003-03-25 10:07 51°22.925 2°55.399 7.5 5 7.7 102360 89
2003-03-25 10:08 51°23.158 2°55.478 7.7 5 7.7 102350 89
2003-03-25 10:09 51°23.379 2°55.55 7.1 5 7.7 102350 90
2003-03-25 10:10 51°23.603 2°55.626 7.4 4 7.7 102350 90
2003-03-25 10:11 51°23.828 2°55.692 8 3 7.7 102350 89
2003-03-25 10:12 51°24.059 2°55.722 7.8 1 7.7 102350 89
2003-03-25 10:13 51°24.291 2°55.695 8.1 360 7.7 102350 90
2003-03-25 10:14 51°24.528 2°55.663 8.3 359 7.7 102350 89
2003-03-25 10:15 51°24.745 2°55.525 7.9 354 7.6 102350 90
2003-03-25 10:16 51°24.951 2°55.342 7.6 355 7.6 102350 89
2003-03-25 10:17 51°25.159 2°55.161 7.7 358 7.6 102350 90
2003-03-25 10:18 51°25.368 2°54.982 8 358 7.7 102350 90
2003-03-25 10:19 51°25.576 2°54.805 7.8 355 7.7 102350 90
2003-03-25 10:20 51°25.787 2°54.633 7.7 354 7.7 102350 90
2003-03-25 10:21 51°25.999 2°54.462 7.7 355 7.8 102350 90
2003-03-25 10:22 51°26.241 2°54.281 7.7 356 7.8 102350 90
2003-03-25 10:23 51°26.468 2°54.099 7.8 356 7.8 102350 90
2003-03-25 10:24 51°26.676 2°53.926 7.6 355 7.8 102350 90
2003-03-25 10:25 51°26.886 2°53.755 8.2 355 7.7 102350 89
2003-03-25 10:26 51°27.103 2°53.586 7.8 356 7.7 102350 89
2003-03-25 10:27 51°27.317 2°53.412 7.4 356 7.7 102350 89
2003-03-25 10:28 51°27.527 2°53.238 7.9 354 7.7 102350 89
2003-03-25 10:29 51°27.727 2°53.036 7.3 355 7.7 102350 90
2003-03-25 10:30 51°27.845 2°52.707 7.5 351 7.7 102350 90
2003-03-25 10:31 51°27.854 2°52.323 7.7 354 7.8 102350 90
2003-03-25 10:32 51°27.818 2°51.935 7.5 352 7.8 102350 90
2003-03-25 10:33 51°27.794 2°51.552 7.6 350 7.8 102350 90
2003-03-25 10:34 51°27.773 2°51.171 7.4 352 7.8 102350 89
2003-03-25 10:35 51°27.748 2°50.79 7.3 350 7.9 102350 89
2003-03-25 10:36 51°27.675 2°50.429 7.4 354 7.9 102350 89
2003-03-25 10:37 51°27.556 2°50.097 7.4 352 7.9 102350 89
2003-03-25 10:38 51°27.41 2°49.804 7.1 349 8 102350 89
2003-03-25 10:39 51°27.199 2°49.629 7.1 352 8 102350 89
2003-03-25 10:40 51°26.976 2°49.666 7.2 351 8 102350 89
2003-03-25 10:41 51°26.781 2°49.851 6.9 357 8 102350 89
2003-03-25 10:42 51°26.573 2°50.031 7.1 354 8 102350 89
2003-03-25 10:43 51°26.366 2°50.185 7.4 351 8.1 102350 89
2003-03-25 10:44 51°26.134 2°50.231 7.6 352 8.1 102360 89
2003-03-25 10:45 51°25.912 2°50.098 7 353 8.1 102360 89
2003-03-25 10:46 51°25.765 2°49.794 7.4 347 8.2 102350 89
2003-03-25 10:47 51°25.65 2°49.446 7.2 350 8.2 102350 89
2003-03-25 10:48 51°25.532 2°49.103 6.8 351 8.2 102350 89
2003-03-25 10:49 51°25.413 2°48.765 6.9 352 8.2 102350 89
2003-03-25 10:50 51°25.291 2°48.429 6.6 354 8.2 102350 89
2003-03-25 10:51 51°25.165 2°48.085 6.9 354 8.2 102350 88
2003-03-25 10:52 51°25.043 2°47.755 6.8 354 8.2 102350 88
2003-03-25 10:53 51°24.916 2°47.413 6.9 354 8.3 102350 88
2003-03-25 10:54 51°24.81 2°47.122 4.3 357 8.3 102350 88
2003-03-25 10:55 51°24.764 2°46.873 4.8 353 8.4 102350 88
2003-03-25 10:56 51°24.84 2°46.598 6.2 348 8.4 102360 88
2003-03-25 10:57 51°25.008 2°46.353 7.2 349 8.3 102350 88
2003-03-25 10:58 51°25.201 2°46.149 6.6 353 8.2 102350 88
2003-03-25 10:59 51°25.418 2°46.044 6.8 354 8.2 102350 88
2003-03-25 11:00 51°25.612 2°45.835 7 350 8.3 102350 88
2003-03-25 11:01 51°25.794 2°45.658 4.5 350 8.3 102350 88
2003-03-25 11:02 51°25.912 2°45.538 4.3 349 8.3 102350 88
2003-03-25 11:03 51°26.046 2°45.415 4.3 349 8.4 102350 88
2003-03-25 11:04 51°26.182 2°45.277 4.2 351 8.4 102350 88
2003-03-25 11:05 51°26.313 2°45.147 4.8 352 8.4 102350 88
2003-03-25 11:06 51°26.45 2°45.017 4.6 352 8.5 102350 88
2003-03-25 11:07 51°26.585 2°44.876 4.4 353 8.5 102350 88
2003-03-25 11:08 51°26.723 2°44.74 4.3 351 8.5 102350 88
2003-03-25 11:09 51°26.863 2°44.61 4.3 349 8.6 102350 88
2003-03-25 11:10 51°26.976 2°44.433 4.3 356 8.6 102350 88
2003-03-25 11:11 51°27.008 2°44.176 4.6 360 8.6 102350 88
2003-03-25 11:12 51°26.977 2°43.91 4.7 1 8.7 102350 88
2003-03-25 11:13 51°26.915 2°43.655 4.7 360 8.7 102350 87
2003-03-25 11:14 51°26.852 2°43.398 4.7 358 8.8 102350 87
2003-03-25 11:15 51°26.791 2°43.139 4.7 357 8.8 102350 87
2003-03-25 11:16 51°26.736 2°42.912 3.4   8.8 102350 87
2003-03-25 11:17 51°26.693 2°42.731 3 358 8.9 102350 87
2003-03-25 11:18 51°26.653 2°42.563 2.9 1 9 102340 87
2003-03-25 11:19 51°26.613 2°42.401 2.7 3 9.1 102340 87
2003-03-25 11:20 51°26.573 2°42.238 2.6 357 9.2 102340 86
2003-03-25 11:21 51°26.534 2°42.075 2.8 356 9.3 102350 86
2003-03-25 11:22 51°26.49 2°41.934 1.8 360 9.3 102340 86
2003-03-25 11:23 51°26.443 2°41.863 1.2 3 9.4 102340 86
2003-03-25 11:24 51°26.402 2°41.826 1 3 9.6 102350 86
2003-03-25 11:25 51°26.368 2°41.804 0.8 3 9.8 102350 86
2003-03-25 11:26 51°26.338 2°41.78 0.9 3 9.9 102340 85
2003-03-25 11:27 51°26.31 2°41.757 0.7 3 10.1 102350 85
2003-03-25 11:28 51°26.286 2°41.73 0.7 3 10.2 102350 84
2003-03-25 11:29 51°26.209 2°41.715 5.4 355 10.3 102350 83
2003-03-25 11:30 51°25.989 2°41.697 7.6 355 9.9 102340 81
2003-03-25 11:31 51°25.801 2°41.658 3.8 352 9.6 102340 81
2003-03-25 11:32 51°25.671 2°41.646 3.7 354 9.5 102340 82
2003-03-25 11:33 51°25.527 2°41.62 3.6 355 9.4 102340 82
2003-03-25 11:34 51°25.377 2°41.587 3.7 354 9.4 102340 83
2003-03-25 11:35 51°25.224 2°41.555 3.8 353 9.3 102340 83
2003-03-25 11:36 51°25.071 2°41.52 3.7 354 9.3 102340 83
2003-03-25 11:37 51°24.916 2°41.484 3.9 351 9.3 102340 83
2003-03-25 11:38 51°24.762 2°41.448 3.9 353 9.2 102340 83
2003-03-25 11:39 51°24.607 2°41.414 3.8 353 9.2 102340 83
2003-03-25 11:40 51°24.451 2°41.381 3.9 357 9.1 102340 83
2003-03-25 11:41 51°24.296 2°41.345 4 357 9.1 102340 84
2003-03-25 11:42 51°24.139 2°41.305 4.3 352 9 102340 84
2003-03-25 11:43 51°23.98 2°41.264 4.2 353 9 102340 84
2003-03-25 11:44 51°23.822 2°41.222 4.7 352 9 102340 84
2003-03-25 11:45 51°23.666 2°41.179 4.6 350 9.1 102340 84
2003-03-25 11:46 51°23.51 2°41.121 4.3 351 9 102340 84
2003-03-25 11:47 51°23.374 2°40.987 4.8 348 9 102340 84
2003-03-25 11:48 51°23.289 2°40.775 4.6 351 9 102340 85
2003-03-25 11:49 51°23.248 2°40.528 4.7 349 8.9 102340 84
2003-03-25 11:50 51°23.205 2°40.29 4.6 347 8.9 102340 85
2003-03-25 11:51 51°23.138 2°40.056 4.6 349 8.9 102340 85
2003-03-25 11:52 51°23.07 2°39.822 4.9 349 8.9 102340 85
2003-03-25 11:53 51°23 2°39.591 4.7 351 8.9 102340 85
2003-03-25 11:54 51°22.929 2°39.358 4.9 347 8.9 102330 85
2003-03-25 11:55 51°22.856 2°39.125 4.7 350 8.9 102330 85
2003-03-25 11:56 51°22.784 2°38.891 4.9 350 9 102330 85
2003-03-25 11:57 51°22.714 2°38.658 5 351 8.9 102330 85
2003-03-25 11:58 51°22.644 2°38.425 4.8 350 9 102330 85
2003-03-25 11:59 51°22.569 2°38.195 4.8 348 9 102330 85
2003-03-25 12:00 51°22.477 2°37.983 4.6 345 9 102330 85
2003-03-25 12:01 51°22.386 2°37.771 4.5 349 9.1 102330 85
2003-03-25 12:02 51°22.293 2°37.56 4.6 347 9.1 102330 85
2003-03-25 12:03 51°22.174 2°37.382 4.6 348 9.1 102330 85
2003-03-25 12:04 51°22.047 2°37.218 4.6 346 9.1 102330 85
2003-03-25 12:05 51°21.919 2°37.05 4.6 348 9.1 102330 85
2003-03-25 12:06 51°21.791 2°36.884 4.8 347 9.2 102330 85
2003-03-25 12:07 51°21.665 2°36.711 4.4 347 9.2 102330 84
2003-03-25 12:08 51°21.538 2°36.545 4.4 345 9.2 102330 84
2003-03-25 12:09 51°21.393 2°36.458 4.3 344 9.2 102320 84
2003-03-25 12:10 51°21.243 2°36.484 4.5 346 9.2 102330 84
2003-03-25 12:11 51°21.062 2°36.578 6 347 9.2 102320 84
2003-03-25 12:12 51°20.859 2°36.682 6.5 346 9.2 102320 84
2003-03-25 12:13 51°20.641 2°36.794 6.8 346 9.2 102320 84
2003-03-25 12:14 51°20.422 2°36.911 6.8 346 9.2 102320 85
2003-03-25 12:15 51°20.202 2°37.032 6.7 346 9.2 102320 85
2003-03-25 12:16 51°19.986 2°37.154 6.8 348 9.2 102320 85
2003-03-25 12:17 51°19.772 2°37.287 6.9 346 9.2 102320 85
2003-03-25 12:18 51°19.555 2°37.422 6.8 348 9.2 102320 85
2003-03-25 12:19 51°19.338 2°37.559 6.6 348 9.2 102320 85
2003-03-25 12:20 51°19.121 2°37.688 6.9 347 9.2 102310 85
2003-03-25 12:21 51°18.898 2°37.816 6.8 350 9.2 102310 85
2003-03-25 12:22 51°18.67 2°37.942 6.8 351 9.2 102310 85
2003-03-25 12:23 51°18.474 2°38.011 5.6 349 9.2 102320 85
2003-03-25 12:24 51°18.28 2°37.959 5.7 349 9.2 102320 85
2003-03-25 12:25 51°18.102 2°37.842 5.5 346 9.2 102310 85
2003-03-25 12:26 51°17.926 2°37.718 5.3 345 9.1 102320 85
2003-03-25 12:27 51°17.752 2°37.589 5.3 345 9.2 102310 85
2003-03-25 12:28 51°17.578 2°37.452 5.4 346 9.2 102310 85
2003-03-25 12:29 51°17.412 2°37.312 5.4 344 9.2 102310 85
2003-03-25 12:30 51°17.238 2°37.165 5.6 345 9.2 102310 85
2003-03-25 12:31 51°17.071 2°37.013 5.8 342 9.2 102300 86
2003-03-25 12:32 51°16.903 2°36.865 5.5 343 9.1 102300 86
2003-03-25 12:33 51°16.734 2°36.717 5.4 344 9.1 102300 86
2003-03-25 12:34 51°16.569 2°36.567 5.3 343 9.2 102300 86
2003-03-25 12:35 51°16.402 2°36.414 5.3 342 9.2 102310 86
2003-03-25 12:36 51°16.232 2°36.257 5 338 9.2 102310 86
2003-03-25 12:37 51°16.078 2°36.091 5.3 340 9.3 102300 86
2003-03-25 12:38 51°15.954 2°35.855 5.7 338 9.3 102300 85
2003-03-25 12:39 51°15.833 2°35.615 5.6 340 9.3 102300 85
2003-03-25 12:40 51°15.718 2°35.365 5.7 337 9.3 102300 85
2003-03-25 12:41 51°15.572 2°35.191 4.7 339 9.3 102300 85
2003-03-25 12:42 51°15.391 2°35.079 4.7 340 9.3 102310 85
2003-03-25 12:43 51°15.218 2°34.948 5.1 340 9.4 102300 85
2003-03-25 12:44 51°15.048 2°34.822 5.1 340 9.4 102300 85
2003-03-25 12:45 51°14.875 2°34.692 5.1 340 9.4 102300 85
2003-03-25 12:46 51°14.697 2°34.571 5.2 339 9.5 102300 85
2003-03-25 12:47 51°14.525 2°34.443 5.4 338 9.5 102300 85
2003-03-25 12:48 51°14.354 2°34.32 5.4 338 9.5 102300 85
2003-03-25 12:49 51°14.183 2°34.197 5.2 338 9.5 102300 85
2003-03-25 12:50 51°14.004 2°34.099 5 336 9.5 102300 85
2003-03-25 12:51 51°13.828 2°34.033 4.8 339 9.5 102300 85
2003-03-25 12:52 51°13.65 2°33.994 4.7 340 9.5 102300 85
2003-03-25 12:53 51°13.469 2°33.957 4.9 339 9.5 102300 85
2003-03-25 12:54 51°13.286 2°33.972 4.4 343 9.5 102300 85
2003-03-25 12:55 51°13.115 2°34.028 4.2 344 9.5 102300 85
2003-03-25 12:56 51°13.025 2°34.217 4.5 3 9.4 102300 84
2003-03-25 12:57 51°13.062 2°34.443 5.4 7 9.4 102300 85
2003-03-25 12:58 51°13.128 2°34.666 5.3 7 9.5 102300 85
2003-03-25 12:59 51°13.192 2°34.886 5 6 9.4 102300 85
2003-03-25 13:00 51°13.253 2°35.105 4.9 7 9.4 102300 85
2003-03-25 13:01 51°13.312 2°35.322 4.8 8 9.4 102300 85
2003-03-25 13:02 51°13.372 2°35.549 4.7 6 9.4 102300 85
2003-03-25 13:03 51°13.426 2°35.768 5.2 5 9.5 102290 85
2003-03-25 13:04 51°13.482 2°35.995 5.3 5 9.5 102290 85
2003-03-25 13:05 51°13.535 2°36.231 5.2 6 9.4 102290 85
2003-03-25 13:06 51°13.588 2°36.452 5.4 5 9.4 102280 85
2003-03-25 13:07 51°13.652 2°36.675 5.2 7 9.4 102280 85
2003-03-25 13:08 51°13.718 2°36.893 5.3 5 9.4 102280 85
2003-03-25 13:09 51°13.78 2°37.114 5.2 8 9.4 102280 85
2003-03-25 13:10 51°13.841 2°37.339 5.3 7 9.4 102280 85
2003-03-25 13:11 51°13.908 2°37.552 5.1 9 9.4 102280 85
2003-03-25 13:12 51°13.973 2°37.771 5 8 9.4 102280 85
2003-03-25 13:13 51°14.024 2°38.001 4.8 7 9.5 102280 85
2003-03-25 13:14 51°14.059 2°38.238 4.7 3 9.6 102280 85
2003-03-25 13:15 51°14.088 2°38.483 4.8 1 9.6 102280 84
2003-03-25 13:16 51°14.105 2°38.728 4.6 360 9.5 102280 84
2003-03-25 13:17 51°14.127 2°38.977 4.5 1 9.5 102280 84
2003-03-25 13:18 51°14.151 2°39.23 5 359 9.5 102270 85
2003-03-25 13:19 51°14.171 2°39.483 4.9 1 9.4 102270 85
2003-03-25 13:20 51°14.189 2°39.738 5 1 9.4 102270 85
2003-03-25 13:21 51°14.213 2°39.982 4.7 358 9.3 102270 85
2003-03-25 13:22 51°14.238 2°40.232 4.7 359 9.3 102270 85
2003-03-25 13:23 51°14.265 2°40.484 4.7 1 9.3 102270 85
2003-03-25 13:24 51°14.286 2°40.74 4.7 3 9.2 102270 85
2003-03-25 13:25 51°14.308 2°40.987 4.8 3 9.2 102270 85
2003-03-25 13:26 51°14.332 2°41.234 4.9 6 9.2 102270 85
2003-03-25 13:27 51°14.354 2°41.479 4.9 5 9.2 102270 85
2003-03-25 13:28 51°14.374 2°41.714 5 4 9.3 102270 85
2003-03-25 13:29 51°14.399 2°41.953 4.9 6 9.3 102270 85
2003-03-25 13:30 51°14.423 2°42.197 5 8 9.4 102270 85
2003-03-25 13:31 51°14.445 2°42.434 5.1 8 9.4 102270 85
2003-03-25 13:32 51°14.47 2°42.672 5.2 9 9.5 102270 84
2003-03-25 13:33 51°14.491 2°42.907 5.2 11 9.6 102270 84
2003-03-25 13:34 51°14.516 2°43.148 5.2 12 9.6 102270 84
2003-03-25 13:35 51°14.54 2°43.392 5.2 12 9.6 102260 84
2003-03-25 13:36 51°14.559 2°43.633 4.9 13 9.6 102260 84
2003-03-25 13:37 51°14.583 2°43.869 5.1 14 9.6 102260 84
2003-03-25 13:38 51°14.609 2°44.111 5.1 13 9.6 102260 84
2003-03-25 13:39 51°14.631 2°44.354 5.5 15 9.7 102260 84
2003-03-25 13:40 51°14.657 2°44.597 5.4 20 9.7 102260 84
2003-03-25 13:41 51°14.684 2°44.844 5.9 21 9.6 102260 84
2003-03-25 13:42 51°14.708 2°45.09 5.9 21 9.6 102260 84
2003-03-25 13:43 51°14.733 2°45.331 5.6 19 9.5 102260 83
2003-03-25 13:44 51°14.76 2°45.585 5.9 21 9.5 102250 83
2003-03-25 13:45 51°14.787 2°45.833 5.6 22 9.4 102250 83
2003-03-25 13:46 51°14.815 2°46.087 5.9 20 9.4 102250 83
2003-03-25 13:47 51°14.845 2°46.342 6 21 9.4 102250 83
2003-03-25 13:48 51°14.872 2°46.599 6 20 9.3 102250 83
2003-03-25 13:49 51°14.895 2°46.834 4.6 31 9.3 102250 83
2003-03-25 13:50 51°14.91 2°46.971 3.7 42 9.3 102250 84
2003-03-25 13:51 51°14.942 2°47.084 6.3 19 9.3 102250 84
2003-03-25 13:52 51°15.067 2°47.125 8.2 350 9.3 102250 84
2003-03-25 13:53 51°15.142 2°46.892 7 326 9.2 102240 84
2003-03-25 13:54 51°15.079 2°46.563 7.6 330 9 102240 84
2003-03-25 13:55 51°15.006 2°46.2 8.2 330 8.9 102240 85
2003-03-25 13:56 51°14.934 2°45.824 8.1 332 8.8 102240 86
2003-03-25 13:57 51°14.864 2°45.443 8.1 331 8.8 102240 86
2003-03-25 13:58 51°14.795 2°45.064 8.1 334 8.8 102230 86
2003-03-25 13:59 51°14.731 2°44.682 7.7 334 8.8 102230 87
2003-03-25 14:00 51°14.668 2°44.301 7.8 334 8.8 102230 87
2003-03-25 14:01 51°14.604 2°43.918 7.7 335 8.8 102230 87
2003-03-25 14:02 51°14.508 2°43.579 5.2 335 8.8 102230 87
2003-03-25 14:03 51°14.324 2°43.591 3.2 17 8.8 102240 87
2003-03-25 14:04 51°14.276 2°43.779 5.4 21 8.8 102230 87
2003-03-25 14:05 51°14.304 2°44.007 6 16 8.8 102230 87
2003-03-25 14:06 51°14.341 2°44.246 6.1 14 8.9 102230 87
2003-03-25 14:07 51°14.39 2°44.476 6.5 13 8.9 102220 87
2003-03-25 14:08 51°14.442 2°44.712 6.1 13 9 102220 87
2003-03-25 14:09 51°14.493 2°44.95 6.3 13 9.1 102220 87
2003-03-25 14:10 51°14.546 2°45.193 6.1 14 9.2 102220 87
2003-03-25 14:11 51°14.593 2°45.434 6.2 14 9.3 102220 87
2003-03-25 14:12 51°14.64 2°45.675 6 14 9.4 102220 86
2003-03-25 14:13 51°14.687 2°45.913 6.7 12 9.4 102220 86
2003-03-25 14:14 51°14.738 2°46.17 6.7 10 9.5 102220 86
2003-03-25 14:15 51°14.788 2°46.42 7 9 9.5 102220 85
2003-03-25 14:16 51°14.84 2°46.684 6.6 9 9.5 102210 85
2003-03-25 14:17 51°14.889 2°46.941 6.8 10 9.6 102210 85
2003-03-25 14:18 51°14.935 2°47.191 7.1 11 9.6 102210 85
2003-03-25 14:19 51°14.977 2°47.454 6.9 11 9.6 102210 84
2003-03-25 14:20 51°15.016 2°47.717 6.6 11 9.5 102210 84
2003-03-25 14:21 51°15.056 2°47.982 7 11 9.5 102210 84
2003-03-25 14:22 51°15.09 2°48.246 6.8 10 9.5 102210 84
2003-03-25 14:23 51°15.124 2°48.508 6.6 9 9.5 102210 84
2003-03-25 14:24 51°15.157 2°48.765 6.8 7 9.6 102210 84
2003-03-25 14:25 51°15.187 2°49.029 6.4 6 9.6 102200 84
2003-03-25 14:26 51°15.217 2°49.29 6.2 5 9.6 102200 84
2003-03-25 14:27 51°15.244 2°49.548 6.3 6 9.5 102200 84
2003-03-25 14:28 51°15.273 2°49.81 6 6 9.5 102200 84
2003-03-25 14:29 51°15.303 2°50.075 6 9 9.5 102200 84
2003-03-25 14:30 51°15.333 2°50.335 6.3 9 9.6 102200 84
2003-03-25 14:31 51°15.366 2°50.597 6.7 9 9.6 102200 84
2003-03-25 14:32 51°15.397 2°50.856 6.6 11 9.6 102200 84
2003-03-25 14:33 51°15.404 2°51.12 6.6 11 9.7 102200 84
2003-03-25 14:34 51°15.407 2°51.385 6.2 12 9.6 102200 84
2003-03-25 14:35 51°15.393 2°51.648 6 13 9.6 102200 84
2003-03-25 14:36 51°15.336 2°51.91 5.5 10 9.7 102200 84
2003-03-25 14:37 51°15.273 2°52.165 5.4 12 9.7 102200 84
2003-03-25 14:38 51°15.208 2°52.42 5.4 7 9.7 102190 84
2003-03-25 14:39 51°15.147 2°52.664 4.8 9 9.6 102190 84
2003-03-25 14:40 51°15.101 2°52.848 3.5 20 9.6 102190 84
2003-03-25 14:41 51°15.063 2°52.995 3.2 27 9.6 102190 84
2003-03-25 14:42 51°15.042 2°53.13 3.8 22 9.7 102190 84
2003-03-25 14:43 51°15.09 2°53.163 4.1 339 9.7 102190 84
2003-03-25 14:44 51°15.125 2°53.07 3.7 312 9.6 102190 83
2003-03-25 14:45 51°15.151 2°52.938 4.2 322 9.3 102190 83
2003-03-25 14:46 51°15.185 2°52.785 4 326 9.1 102180 84
2003-03-25 14:47 51°15.213 2°52.633 3.8 330 9 102180 85
2003-03-25 14:48 51°15.246 2°52.487 3.6 328 9 102180 86
2003-03-25 14:49 51°15.279 2°52.358 3.4 322 9 102180 86
2003-03-25 14:50 51°15.307 2°52.236 3.5 319 8.9 102180 87
2003-03-25 14:51 51°15.334 2°52.108 3.5 318 8.9 102180 87
2003-03-25 14:52 51°15.364 2°51.977 3.8 316 8.8 102180 87
2003-03-25 14:53 51°15.394 2°51.837 5.2 323 8.8 102180 88
2003-03-25 14:54 51°15.409 2°51.576 5.5 325 8.7 102170 88
2003-03-25 14:55 51°15.399 2°51.287 5.7 326 8.7 102170 88
2003-03-25 14:56 51°15.377 2°50.992 5.7 326 8.7 102170 88
2003-03-25 14:57 51°15.354 2°50.708 5.5 330 8.7 102170 89
2003-03-25 14:58 51°15.317 2°50.416 5.3 331 8.8 102170 89
2003-03-25 14:59 51°15.279 2°50.138 5.1 331 8.8 102170 89
2003-03-25 15:00 51°15.241 2°49.848 5.1 334 8.9 102170 89
2003-03-25 15:01 51°15.204 2°49.57 4.9 332 9 102170 89
2003-03-25 15:02 51°15.174 2°49.35 3.5 323 9.1 102170 88
2003-03-25 15:03 51°15.147 2°49.155 3.8 324 9 102170 88
2003-03-25 15:04 51°15.119 2°48.953 4.1 320 8.9 102170 88
2003-03-25 15:05 51°15.092 2°48.752 3.9 320 8.9 102170 88
2003-03-25 15:06 51°15.063 2°48.552 3.9 318 8.8 102170 88
2003-03-25 15:07 51°15.036 2°48.352 3.8 319 8.7 102170 88
2003-03-25 15:08 51°15.011 2°48.15 3.8 319 8.7 102160 88
2003-03-25 15:09 51°14.983 2°47.949 3.8 318 8.6 102160 89
2003-03-25 15:10 51°14.955 2°47.754 3.7 321 8.6 102160 89
2003-03-25 15:11 51°14.93 2°47.556 3.6 319 8.7 102160 89
2003-03-25 15:12 51°14.903 2°47.358 3.6 317 8.6 102160 89
2003-03-25 15:13 51°14.875 2°47.162 3.7 316 8.6 102160 89
2003-03-25 15:14 51°14.852 2°46.965 3.8 314 8.6 102160 89
2003-03-25 15:15 51°14.824 2°46.77 3.7 314 8.5 102160 89
2003-03-25 15:16 51°14.797 2°46.578 3.8 313 8.5 102160 89
2003-03-25 15:17 51°14.774 2°46.4 3.1 304 8.5 102160 89
2003-03-25 15:18 51°14.752 2°46.232 3.4 312 8.5 102160 89
2003-03-25 15:19 51°14.727 2°46.048 3.7 315 8.5 102160 89
2003-03-25 15:20 51°14.7 2°45.859 3.6 317 8.5 102160 89
2003-03-25 15:21 51°14.675 2°45.665 3.7 321 8.5 102160 89
2003-03-25 15:22 51°14.65 2°45.47 3.8 316 8.5 102160 89
2003-03-25 15:23 51°14.625 2°45.279 3.8 320 8.5 102150 89
2003-03-25 15:24 51°14.6 2°45.081 3.7 321 8.6 102150 89
2003-03-25 15:25 51°14.574 2°44.884 3.7 321 8.6 102150 89
2003-03-25 15:26 51°14.551 2°44.684 3.7 320 8.6 102150 89
2003-03-25 15:27 51°14.528 2°44.486 3.8 321 8.6 102150 89
2003-03-25 15:28 51°14.505 2°44.287 3.8 321 8.6 102150 89
2003-03-25 15:29 51°14.483 2°44.108 3.2 312 8.6 102150 89
2003-03-25 15:30 51°14.463 2°43.94 3.4 319 8.6 102150 89
2003-03-25 15:31 51°14.442 2°43.754 3.6 323 8.6 102140 89
2003-03-25 15:32 51°14.42 2°43.557 3.6 323 8.6 102140 89
2003-03-25 15:33 51°14.396 2°43.356 3.5 325 8.6 102140 89
2003-03-25 15:34 51°14.371 2°43.158 3.5 325 8.7 102140 89
2003-03-25 15:35 51°14.345 2°42.962 3.6 325 8.7 102140 89
2003-03-25 15:36 51°14.319 2°42.766 3.5 324 8.7 102140 89
2003-03-25 15:37 51°14.293 2°42.567 3.6 325 8.7 102140 89
2003-03-25 15:38 51°14.265 2°42.373 3 323 8.7 102140 89
2003-03-25 15:39 51°14.18 2°42.245 1.9 347 8.7 102140 89
2003-03-25 15:40 51°14.066 2°42.257 2.7 16 8.9 102140 89
2003-03-25 15:41 51°13.996 2°42.394 4 14 8.9 102140 89
2003-03-25 15:42 51°14.015 2°42.567 5.2 2 9 102130 89
2003-03-25 15:43 51°14.08 2°42.725 5.2 5 9.1 102130 89
2003-03-25 15:44 51°14.131 2°42.902 5.2 3 9.1 102130 89
2003-03-25 15:45 51°14.181 2°43.086 5.2 4 9.1 102130 88
2003-03-25 15:46 51°14.225 2°43.237 3.5 6 9.1 102130 88
2003-03-25 15:47 51°14.255 2°43.335 2.9 11 9.1 102130 88
2003-03-25 15:48 51°14.274 2°43.409 2.6 13 9.2 102130 88
2003-03-25 15:49 51°14.303 2°43.521 5.3 5 9.2 102130 88
2003-03-25 15:50 51°14.36 2°43.784 8 1 9.2 102120 88
2003-03-25 15:51 51°14.434 2°44.13 8.5 360 9 102120 87
2003-03-25 15:52 51°14.508 2°44.499 8.7 2 9 102120 88
2003-03-25 15:53 51°14.571 2°44.856 8.4   9 102120 88
2003-03-25 15:54 51°14.633 2°45.22 8.5 2 8.9 102110 88
2003-03-25 15:55 51°14.694 2°45.588 8.7 1 8.9 102120 88
2003-03-25 15:56 51°14.754 2°45.954 8.9 3 8.8 102110 88
2003-03-25 15:57 51°14.811 2°46.323 8.5 3 8.8 102120 88
2003-03-25 15:58 51°14.867 2°46.692 8.3 4 8.8 102110 88
2003-03-25 15:59 51°14.922 2°47.064 8.7 2 8.8 102110 88
2003-03-25 16:00 51°14.979 2°47.442 8.8 2 8.7 102110 88
2003-03-25 16:01 51°15.03 2°47.816 9 2 8.8 102100 88
2003-03-25 16:02 51°15.083 2°48.18 8.9 4 8.8 102110 88
2003-03-25 16:03 51°15.134 2°48.552 8.8 4 8.9 102100 88
2003-03-25 16:04 51°15.185 2°48.924 8.7 5 8.9 102110 88
2003-03-25 16:05 51°15.237 2°49.297 9.1 4 9 102110 88
2003-03-25 16:06 51°15.287 2°49.671 8.8 5 9 102110 88
2003-03-25 16:07 51°15.335 2°50.045 8.8 6 9 102100 88
2003-03-25 16:08 51°15.486 2°50.271 8.6 345 9 102100 88
2003-03-25 16:09 51°15.615 2°50.063 6 334 9 102100 88
2003-03-25 16:10 51°15.539 2°49.735 6.4 338 9 102110 88
2003-03-25 16:11 51°15.465 2°49.411 6.3 338 9 102110 88
2003-03-25 16:12 51°15.386 2°49.079 6.1 338 9 102100 88
2003-03-25 16:13 51°15.311 2°48.748 6.1 336 9 102110 88
2003-03-25 16:14 51°15.235 2°48.405 5.9 334 9 102110 88
2003-03-25 16:15 51°15.162 2°48.069 6 334 9 102100 88
2003-03-25 16:16 51°15.092 2°47.735 5.9 334 9 102110 88
2003-03-25 16:17 51°15.022 2°47.403 5.9 335 9 102110 88
2003-03-25 16:18 51°14.953 2°47.068 5.8 336 9 102110 88
2003-03-25 16:19 51°14.887 2°46.734 5.9 336 8.9 102110 88
2003-03-25 16:20 51°14.826 2°46.4 6 336 8.9 102110 88
2003-03-25 16:21 51°14.769 2°46.07 6 336 8.9 102110 88
2003-03-25 16:22 51°14.715 2°45.727 6.1 336 8.9 102110 88
2003-03-25 16:23 51°14.664 2°45.39 6.1 336 8.8 102110 88
2003-03-25 16:24 51°14.615 2°45.051 6.1 334 8.8 102110 88
2003-03-25 16:25 51°14.567 2°44.714 6.3 333 8.8 102110 88
2003-03-25 16:26 51°14.518 2°44.372 6.4 335 8.8 102110 88
2003-03-25 16:27 51°14.469 2°44.038 6.4 334 8.8 102110 88
2003-03-25 16:28 51°14.423 2°43.692 6.4 334 8.8 102100 88
2003-03-25 16:29 51°14.376 2°43.354 6.3 335 8.8 102100 89
2003-03-25 16:30 51°14.326 2°43.005 6.5 337 8.8 102100 89
2003-03-25 16:31 51°14.279 2°42.654 6.3 336 8.8 102100 89
2003-03-25 16:32 51°14.232 2°42.306 6.1 337 8.7 102100 89
2003-03-25 16:33 51°14.188 2°41.965 6.5 338 8.7 102100 89
2003-03-25 16:34 51°14.142 2°41.615 6.2 336 8.7 102100 89
2003-03-25 16:35 51°14.099 2°41.263 6.2 333 8.6 102100 89
2003-03-25 16:36 51°14.055 2°40.913 6.3 335 8.5 102100 89
2003-03-25 16:37 51°13.99 2°40.592 4.5 348 8.5 102100 89
2003-03-25 16:38 51°13.804 2°40.618 7.1 15 8.5 102100 89
2003-03-25 16:39 51°13.809 2°40.962 9.5 5 8.5 102090 89
2003-03-25 16:40 51°13.896 2°41.321 9.9 5 8.5 102080 89
2003-03-25 16:41 51°13.981 2°41.687 9.7 3 8.5 102080 89
2003-03-25 16:42 51°14.067 2°42.053 9.5 4 8.5 102090 89
2003-03-25 16:43 51°14.144 2°42.421 9.2 6 8.6 102080 89
2003-03-25 16:44 51°14.214 2°42.789 9.2 7 8.6 102080 89
2003-03-25 16:45 51°14.282 2°43.167 9.1 8 8.6 102080 89
2003-03-25 16:46 51°14.344 2°43.528 4.4 9 8.6 102080 89
2003-03-25 16:47 51°14.408 2°43.916 9.5 8 8.6 102090 89
2003-03-25 16:48 51°14.469 2°44.292 9.3 10 8.6 102080 89
2003-03-25 16:49 51°14.527 2°44.677 9.8 10 8.6 102090 89
2003-03-25 16:50 51°14.585 2°45.061 9.2 9 8.6 102080 89
2003-03-25 16:51 51°14.641 2°45.443 9.1 7 8.5 102080 89
2003-03-25 16:52 51°14.7 2°45.836 9.2 6 8.5 102090 90
2003-03-25 16:53 51°14.756 2°46.22 9.2 9 8.5 102090 90
2003-03-25 16:54 51°14.81 2°46.612 9.7 7 8.5 102090 90
2003-03-25 16:55 51°14.864 2°47.001 9.5 8 8.5 102090 90
2003-03-25 16:56 51°14.917 2°47.381 9.3 8 8.4 102080 90
2003-03-25 16:57 51°14.972 2°47.775 9.4 8 8.4 102080 90
2003-03-25 16:58 51°15.026 2°48.161 9 7 8.5 102080 90
2003-03-25 16:59 51°15.08 2°48.541 9 6 8.5 102080 90
2003-03-25 17:00 51°15.133 2°48.927 9.3 6 8.5 102080 90
2003-03-25 17:01 51°15.187 2°49.304 9.3 6 8.6 102090 90
2003-03-25 17:02 51°15.243 2°49.697 9.1 7 8.6 102080 90
2003-03-25 17:03 51°15.297 2°50.074 9.6 10 8.5 102080 90
2003-03-25 17:04 51°15.354 2°50.449 8.3 9 8.5 102080 90
2003-03-25 17:05 51°15.398 2°50.735 6.8 14 8.5 102090 90
2003-03-25 17:06 51°15.436 2°50.976 6.5 15 8.5 102100 90
2003-03-25 17:07 51°15.473 2°51.22 5.8 18 8.5 102100 90
2003-03-25 17:08 51°15.465 2°51.458 5.3 29 8.5 102100 90
2003-03-25 17:09 51°15.406 2°51.662 4.3 35 8.5 102100 90
2003-03-25 17:10 51°15.325 2°51.849 4.4 27 8.5 102100 90
2003-03-25 17:11 51°15.258 2°52.049 4 30 8.5 102100 90
2003-03-25 17:12 51°15.182 2°52.239 4.7 31 8.5 102110 90
2003-03-25 17:13 51°15.101 2°52.423 4.4 29 8.5 102100 90
2003-03-25 17:14 51°15.025 2°52.613 4.2 26 8.5 102100 90
2003-03-25 17:15 51°14.963 2°52.79 4.2 35 8.5 102100 90
2003-03-25 17:16 51°14.916 2°52.949 4 132 8.5 102100 90
2003-03-25 17:17 51°14.867 2°53.086 3.3 51 8.6 102110 90
2003-03-25 17:18 51°14.825 2°53.214 3.4 46 8.6 102110 90
2003-03-25 17:19 51°14.788 2°53.336 3.3 43 8.7 102110 90
2003-03-25 17:20 51°14.757 2°53.457 3.4 46 8.7 102110 90
2003-03-25 17:21 51°14.72 2°53.561 3 51 8.7 102110 90
2003-03-25 17:22 51°14.674 2°53.648 3.2 60 8.8 102110 90
2003-03-25 17:23 51°14.646 2°53.757 3.5 317 8.8 102100 90
2003-03-25 17:24 51°14.635 2°53.892 4.6 31 8.8 102110 90
2003-03-25 17:25 51°14.625 2°54.093 5.7 19 8.8 102100 89
2003-03-25 17:26 51°14.611 2°54.309 5.6 18 8.8 102100 89
2003-03-25 17:27 51°14.587 2°54.527 5.3 25 8.8 102090 89
2003-03-25 17:28 51°14.532 2°54.72 4.5 24 8.7 102100 89
2003-03-25 17:29 51°14.457 2°54.892 4.6 23 8.7 102100 89
2003-03-25 17:30 51°14.373 2°55.051 4.2 18 8.7 102100 89
2003-03-25 17:31 51°14.294 2°55.172 2.8 18 8.7 102100 89
2003-03-25 17:32 51°14.249 2°55.262 2 13 8.7 102100 89
2003-03-25 17:33 51°14.213 2°55.33 1.3 33 8.7 102110 89
2003-03-25 17:34 51°14.177 2°55.368 1.1 46 8.8 102110 89
2003-03-25 17:35 51°14.151 2°55.392 1.3 60 8.8 102110 89
2003-03-25 17:36 51°14.137 2°55.404 0.6 102 8.8 102110 89
2003-03-25 17:37 51°14.125 2°55.411 0.9 39 8.8 102100 89
2003-03-25 17:38 51°14.055 2°55.464 2.6 15 8.8 102100 89
2003-03-25 17:39 51°13.956 2°55.539 2.5 14 8.8 102100 89
2003-03-25 17:40 51°13.864 2°55.61 1.8 40 8.9 102100 89
2003-03-25 17:41 51°13.786 2°55.674 1.9 42 8.9 102100 89
2003-03-25 17:42 51°13.733 2°55.742 1.5 31 8.9 102100 88
2003-03-25 17:43 51°13.694 2°55.811 2.2 43 9 102100 88
2003-03-25 17:44 51°13.664 2°55.882 2.9 57 9.1 102100 88
2003-03-25 17:45 51°13.636 2°55.951 1.4 37 9.2 102100 88
2003-03-25 17:46 51°13.613 2°56.019 2.2 17 9.3 102100 88
2003-03-25 17:47 51°13.605 2°56.08 1.6 45 9.4 102100 87